STARLINK J

Last updated on June 19, 2020, 12:02 a.m. UTC

1 45738U 20038J   20170.66667824  .01477413  10707-2  27637-2 0  9996
2 45738  53.0008 272.2798 0098690  69.8718  14.2728 15.91959105  2127

Satellite is not in orbit.